Home > Weather > Port Hedland > Past weeks

Flag for Australia Weather for the Past 2 Weeks in Port Hedland, Western Australia, Australia

Now
82 °F

Sunny.


Feels Like: 94 °F
Forecast: 83 / 91 °F
Wind: 3 mph from North

Location: Port Hedland Pardoo

Current Time: Feb 13, 2016 at 5:26:11 AM

Latest Report: Feb 13, 2016 at 5:00 AM


Visibility: 6 mi

Pressure: 29.74 "Hg

Humidity: 94%

Dew point: 81 °F

Location of Port HedlandLocation

Historic Weather in Port Hedland — Graph

°F

Port Hedland Temperature Yesterday

Maximum temperature yesterday: 108 °F (at 9:30 AM)
Minimum temperature yesterday: 81 °F (at 4:00 AM)
Average temperature yesterday: 92 °F

High & Low Weather Summary for the Past Weeks

 TemperatureHumidityPressure
High113 °F (Feb 11, 1:30 PM)100% (Jan 29, 10:00 AM)29.83 "Hg (Jan 29, 10:00 AM)
Low73 °F (Feb 1, 6:00 AM)6% (Feb 11, 10:00 AM)29.39 "Hg (Jan 31, 2:30 AM)
Average87 °F63%29.69 "Hg
* Reported Jan 29 4:00 AM — Feb 13 4:00 AM, Port Hedland, Weather by CustomWeather, © 2016

Note: Actual official high and low records may vary slightly from our data, if they occured in-between our weather recording intervals... More about our weather records

Advertising

Port Hedland Weather History for the Previous 24 Hours

 ConditionsComfort  
Time TempWeatherWind HumidityBarometerVisibility
4:00 AM
Sat, Feb 13
81 °FClear.7 mph100%29.71 "Hg4 mi
3:00 AM82 °FClear.5 mph94%29.71 "Hg5 mi
2:30 AM82 °FClear.9 mph94%29.71 "Hg5 mi
2:00 AM82 °FClear.6 mph94%29.71 "Hg5 mi
1:00 AM84 °FClear.6 mph89%29.74 "Hg6 mi
12:30 AM82 °FClear.7 mph94%29.74 "HgN/A
12:00 AM82 °FClear.7 mph94%29.74 "HgN/A
11:00 PM
Fri, Feb 12
84 °FClear.6 mph84%29.74 "HgN/A
10:30 PM84 °FClear.10 mph84%29.74 "HgN/A
10:00 PM82 °FClear.10 mph84%29.74 "HgN/A
9:00 PM86 °FClear.6 mph79%29.74 "HgN/A
8:30 PM86 °FClear.7 mph75%29.74 "HgN/A
8:00 PM88 °FClear.7 mph70%29.74 "HgN/A
7:30 PM88 °FClear.7 mph70%29.71 "HgN/A
7:00 PM90 °FClear.9 mph63%29.71 "HgN/A
6:30 PM91 °FClear.12 mph59%29.68 "HgN/A
6:00 PM95 °FClear.12 mph47%29.68 "HgN/A
5:00 PM97 °FSunny.13 mph39%29.65 "HgN/A
4:00 PM100 °FSunny.17 mph35%29.65 "HgN/A
3:30 PM100 °FSunny.18 mph37%29.65 "HgN/A
3:00 PM100 °FSunny.17 mph33%29.65 "HgN/A
2:30 PM100 °FSunny.17 mph35%29.65 "HgN/A
2:00 PM99 °FSunny.18 mph39%29.68 "HgN/A
1:30 PM102 °FSunny.16 mph31%29.68 "HgN/A
1:00 PM99 °FSunny.15 mph39%29.71 "HgN/A
12:30 PM102 °FSunny.14 mph37%29.71 "HgN/A
12:00 PM100 °FSunny.15 mph27%29.71 "HgN/A
11:00 AM102 °FSunny.17 mph24%29.74 "HgN/A
10:00 AM108 °FSunny.15 mph11%29.74 "HgN/A
9:30 AM108 °FSunny.17 mph8%29.74 "HgN/A
9:00 AM106 °FSunny.17 mph8%29.74 "HgN/A
8:30 AM104 °FSunny.17 mph8%29.74 "HgN/A
8:00 AM102 °FSunny.13 mph11%29.74 "HgN/A
7:00 AM90 °FSunny.7 mph22%29.74 "HgN/A
6:00 AM82 °FSunny.8 mph32%29.74 "HgN/A
5:00 AM82 °FSunny.7 mph35%29.71 "HgN/A
Weather by CustomWeather, © 2016

See weather overviewHow to use our weather pages